Weather History for Atlanta Fulton, GA

Change the Weather History Date:

Sunday, December 30, 2012

  Actual Average Record
Temperature  
Mean Temperature 37 °F 43 °F  
Max Temperature 46 °F 52 °F 69 °F (1996)
Min Temperature 28 °F 33 °F 19 °F (2000)
Degree Days  
Heating Degree Days 28    
Moisture  
Dew Point 23 °F    
Average Humidity 62    
Maximum Humidity 85    
Minimum Humidity 35    
Precipitation  
Precipitation 0.00 in 0.09 in 0.87 in (1970)
Month to date precipitation 3.90  
Snow  
Snow 0.00 in - - ()
Month to date snowfall  
Since 1 July snowfall  
Snow Depth -    
Sea Level Pressure  
Sea Level Pressure 30.38 in    
Wind  
Wind Speed 9 mph (NW)    
Max Wind Speed 18 mph    
Max Gust Speed 28 mph    
Visibility 10 miles    
Events      
T = Trace of Precipitation, MM = Missing Value Source: NWS Daily Summary

Daily Weather History Graph

Daily Weather History Graph

Search for Another Location

Airport:

Trip Planner

Search our weather history database for the weather conditions in past years. The results will help you decide how hot, cold, wet, or windy it might be!

Date:

Astronomy

Dec. 30, 2012 Rise Set
Actual Time 7:42 AM EST 5:39 PM EST
Civil Twilight 7:15 AM EST 6:06 PM EST
Nautical Twilight 6:43 AM EST 6:38 PM EST
Astronomical Twilight 6:13 AM EST 7:08 PM EST
Moon 8:02 PM EST (12/30) 8:57 AM EST (12/30)
Length of Visible Light 10h 51m
Length of Day
9h 56m
Waning Gibbous, 95% of the Moon is Illuminated
Dec 30
Waning Gibbous
Jan 4
Last Quarter
Jan 11
New
Jan 18
First Quarter
Jan 26
Full

Hourly Weather History & Observations

Time (EST) Temp. Windchill Dew Point Humidity Pressure Visibility Wind Dir Wind Speed Gust Speed Precip Events Conditions
12:01 AM 35.6 °F 28.0 °F 26.6 °F 70% 30.23 in 10.0 mi NW 10.4 mph - N/A   Overcast
12:53 AM 35.6 °F 27.1 °F 26.6 °F 70% 30.24 in 10.0 mi NW 12.7 mph 19.6 mph N/A   Overcast
1:53 AM 33.1 °F 24.9 °F 25.0 °F 72% 30.26 in 10.0 mi NW 10.4 mph - N/A   Clear
2:53 AM 34.0 °F 25.5 °F 24.1 °F 67% 30.29 in 10.0 mi NW 11.5 mph 19.6 mph N/A   Overcast
3:53 AM 33.1 °F 24.9 °F 21.9 °F 64% 30.30 in 10.0 mi North 10.4 mph 17.3 mph N/A   Mostly Cloudy
4:53 AM 33.1 °F 21.9 °F 21.9 °F 64% 30.31 in 10.0 mi NW 18.4 mph 27.6 mph N/A   Partly Cloudy
5:53 AM 32.0 °F 22.1 °F 23.0 °F 69% 30.32 in 10.0 mi NNW 13.8 mph 19.6 mph N/A   Clear
6:53 AM 30.9 °F 26.2 °F 21.9 °F 69% 30.36 in 10.0 mi NNW 4.6 mph - N/A   Clear
7:53 AM 30.0 °F 21.7 °F 21.0 °F 69% 30.38 in 10.0 mi NNW 9.2 mph 17.3 mph N/A   Clear
8:53 AM 30.9 °F 23.5 °F 21.0 °F 67% 30.41 in 10.0 mi NNW 8.1 mph - N/A   Clear
9:53 AM 33.1 °F 25.5 °F 21.0 °F 61% 30.45 in 10.0 mi NNW 9.2 mph 17.3 mph N/A   Clear
10:53 AM 35.1 °F 27.4 °F 21.0 °F 57% 30.46 in 10.0 mi NW 10.4 mph - N/A   Clear
11:53 AM 39.0 °F 34.0 °F 21.0 °F 49% 30.46 in 10.0 mi NNW 6.9 mph - N/A   Clear
12:53 PM 41.0 °F 36.4 °F 21.9 °F 47% 30.43 in 10.0 mi Variable 6.9 mph - N/A   Clear
1:53 PM 44.1 °F 40.1 °F 21.0 °F 40% 30.40 in 10.0 mi NW 6.9 mph - N/A   Clear
2:53 PM 45.0 °F 40.6 °F 21.0 °F 39% 30.40 in 10.0 mi WNW 8.1 mph - N/A   Clear
3:53 PM 46.0 °F 43.9 °F 19.9 °F 35% 30.39 in 10.0 mi WNW 4.6 mph - N/A   Clear
4:53 PM 45.0 °F 41.8 °F 21.0 °F 39% 30.40 in 10.0 mi WNW 5.8 mph - N/A   Clear
5:53 PM 41.0 °F 38.0 °F 21.9 °F 47% 30.41 in 10.0 mi NNW 4.6 mph - N/A   Clear
6:53 PM 37.9 °F - 23.0 °F 55% 30.43 in 10.0 mi Calm Calm - N/A   Clear
7:53 PM 35.1 °F - 24.1 °F 64% 30.43 in 10.0 mi Calm Calm - N/A   Clear
8:53 PM 32.0 °F - 25.0 °F 75% 30.41 in 10.0 mi Calm Calm - N/A   Clear
9:53 PM 28.0 °F - 24.1 °F 85% 30.40 in 10.0 mi Calm Calm - N/A   Clear
10:53 PM 30.0 °F - 25.0 °F 82% 30.42 in 10.0 mi Calm Calm - N/A   Clear
11:53 PM 28.0 °F - 24.1 °F 85% 30.40 in 10.0 mi Calm Calm - N/A   Clear